Location: Oshawa
(43.9000°N, 78.8670°W)
Time: 14:59:11
(UTC-04:00)

Cosmos 1821 Rocket - Visible Passes

Search period start: 16 April 2014 00:00
Search period end: 26 April 2014 00:00
Orbit: 947 x 1004 km, 82.9° (Epoch: 14 April)

Date Brightness Start Highest point End Pass type
(mag) Time Alt. Az. Time Alt. Az. Time Alt. Az.
16 Apr 4.6 00:29:01 52° N 00:29:01 52° N 00:33:40 10° N visible
16 Apr 6.1 02:13:40 15° WNW 02:13:41 15° WNW 02:17:13 10° NNW visible
16 Apr 5.5 23:09:23 23° ENE 23:09:23 23° ENE 23:12:51 10° NNE visible
17 Apr 4.8 00:54:02 46° NW 00:54:02 46° NW 00:59:00 10° N visible
17 Apr 4.8 23:34:24 39° ENE 23:34:24 39° ENE 23:38:55 10° NNE visible
18 Apr 5.3 01:19:02 30° WNW 01:19:02 30° WNW 01:24:02 10° N visible
18 Apr 6.0 22:14:44 11° ENE 22:14:44 11° ENE 22:16:00 10° ENE visible
18 Apr 4.3 23:59:23 62° NNE 23:59:23 62° NNE 00:04:36 10° N visible
19 Apr 5.9 01:44:01 18° WNW 01:44:27 18° WNW 01:48:35 10° NNW visible
19 Apr 5.4 22:39:42 21° ENE 22:39:42 21° ENE 22:43:33 10° NE visible
20 Apr 4.4 00:24:21 58° NW 00:24:21 58° NW 00:30:01 10° N visible
20 Apr 4.7 23:04:39 37° ENE 23:04:39 37° ENE 23:09:45 10° NNE visible
21 Apr 5.1 00:49:18 35° WNW 00:49:24 35° WNW 00:55:08 10° N visible
21 Apr 4.0 23:29:35 67° ENE 23:29:35 67° ENE 23:35:31 10° NNE visible
22 Apr 5.8 01:14:13 20° W 01:15:15 21° WNW 01:19:51 10° NNW visible
22 Apr 5.5 22:09:51 19° E 22:10:00 19° E 22:14:10 10° NE visible
22 Apr 4.1 23:54:29 70° W 23:54:39 70° W 00:01:00 10° N visible
23 Apr 6.4 01:39:17 10° WNW 01:41:19 12° WNW 01:43:21 10° NW visible
23 Apr 4.7 22:34:44 33° E 22:35:01 33° E 22:40:34 10° NNE visible
24 Apr 4.9 00:19:22 38° W 00:20:15 40° WNW 00:26:12 10° N visible
24 Apr 4.0 22:59:35 56° ESE 23:00:12 59° E 23:06:25 10° NNE visible
25 Apr 5.7 00:44:13 21° W 00:46:03 24° WNW 00:51:03 10° NNW visible
25 Apr 5.5 21:39:46 15° E 21:41:04 16° E 21:44:42 10° NE visible
25 Apr 4.0 23:24:24 61° SSW 23:25:34 81° W 23:31:58 10° N visible
